Regional Weather Roundup
Issued by NWS

Home | Current Version | Previous Version | Graphics & Text | Print | Product List | Glossary Off
Versions: 1 2 3 4 5 6 7 8 9 10 11 12 13 14 15 16 17 18 19 20 21 22 23 24 25 26 27 28 29 30 31 32 33 34 35 36 37 38 39 40 41 42 43 44 45 46 47 48 49 50

000
ASUS43 KTOP 270559
RWRKS

WEATHER ROUNDUP FOR KANSAS
NATIONAL WEATHER SERVICE GOODLAND KS
100 AM CDT WED AUG 27 2014

NOTE:  "FAIR" INDICATES FEW OR NO CLOUDS BELOW 12,000 FEET WITH NO
SIGNIFICANT WEATHER AND/OR OBSTRUCTIONS TO VISIBILITY.

KSZ001>006-013>018-027>032-041>047-270700-
NORTHWEST KANSAS

CITY           SKY/WX    TMP DP  RH WIND       PRES   REMARKS
GOODLAND       LGT RAIN  64  63  96 NE3       30.18F
6HR MIN TEMP:  64; 6HR MAX TEMP:  82; 6HR PCP:  0.70;

HAYS           FAIR      73  66  78 SE7       30.09F
HILL CITY      CLOUDY    75  66  73 E3        30.10S
6HR MIN TEMP:  74; 6HR MAX TEMP:  86;

RUSSELL        FAIR      76  68  76 SE8       30.08S
6HR MIN TEMP:  75; 6HR MAX TEMP:  86;

$$

KSZ061>065-074>080-084>089-270700-
SOUTHWEST KANSAS

CITY           SKY/WX    TMP DP  RH WIND       PRES   REMARKS
DODGE CITY     FAIR      75  62  64 SW9       30.14S
6HR MIN TEMP:  75; 6HR MAX TEMP:  85;

ELKHART          N/A    N/A N/A N/A MISG        N/A
GARDEN CITY    LGT RAIN  69  66  90 W6        30.15F
6HR MIN TEMP:  69; 6HR MAX TEMP:  86; 6HR PCP:  0.03;

GREAT BEND     MOCLDY    75  64  69 SE5       30.09F
LIBERAL        FAIR      72  63  73 NW7       30.17F
$$

KSZ066>073-081>083-090>101-270700-
SOUTHEAST KANSAS

CITY           SKY/WX    TMP DP  RH WIND       PRES   REMARKS
CHANUTE        FAIR      76  66  71 S6        30.07S
6HR MIN TEMP:  76; 6HR MAX TEMP:  94;

COFFEYVILLE    FAIR      80  67  64 CALM      30.06S
6HR MIN TEMP:  79; 6HR MAX TEMP:  94;

HUTCHINSON     FAIR      77  68  73 CALM      30.08S
6HR MIN TEMP:  75; 6HR MAX TEMP:  87;

NEWTON         FAIR      75  63  64 SE7       30.12S
PARSONS        FAIR      79  66  64 S3        30.07S
6HR MIN TEMP:  77; 6HR MAX TEMP:  94;

WICHITA INTL   MOCLDY    81  68  64 SE7       30.07S
6HR MIN TEMP:  80; 6HR MAX TEMP:  83; 6HR PCP:  0.01;

WICHITA JABRA  FAIR      78  68  71 SE3       30.08S
6HR MIN TEMP:  76; 6HR MAX TEMP:  82; 6HR PCP: TRACE;

WINFIELD       FAIR      79  68  69 S6        30.08S
6HR MIN TEMP:  79; 6HR MAX TEMP:  90;

$$

KSZ007>012-019>026-033>040-048>060-102>105-270700-
NORTHEAST KANSAS

CITY           SKY/WX    TMP DP  RH WIND       PRES   REMARKS
CONCORDIA      FAIR      71  69  93 SE5       30.09S
6HR MIN TEMP:  71; 6HR MAX TEMP:  86;

EMPORIA        FAIR      75  68  78 SE6       30.07S
6HR MIN TEMP:  74; 6HR MAX TEMP:  81;

LAWRENCE       FAIR      80  73  79 NE6       30.08S
6HR MIN TEMP:  79; 6HR MAX TEMP:  87; 6HR PCP:  0.02;

MANHATTAN      FAIR      74  68  81 CALM      30.08S
6HR MIN TEMP:  74; 6HR MAX TEMP:  84;

OLATHE IND     FAIR      77  73  87 E7        30.10S
6HR MIN TEMP:  77; 6HR MAX TEMP:  89;

OLATHE EXE     FAIR      78  73  84 NE5       30.09S
6HR MIN TEMP:  78; 6HR MAX TEMP:  88;

SALINA         MOCLDY    78  67  68 SE5       30.07F
6HR MIN TEMP:  77; 6HR MAX TEMP:  89;

TOPEKA BILLARD FAIR      79  75  87 E3        30.08R
6HR MIN TEMP:  77; 6HR MAX TEMP:  85; 6HR PCP: TRACE;

TOPEKA FORBES  FAIR      78  72  81 CALM      30.08S
6HR MIN TEMP:  76; 6HR MAX TEMP:  86; 6HR PCP:  0.05;

$$



USA.gov is the U.S. government's official web portal to all federal, state and local government web resources and services.